Time,TemperatureF,DewpointF,PressureIn,WindDirection,WindDirectionDegrees,WindSpeedMPH,WindSpeedGustMPH,Humidity,HourlyPrecipIn,Conditions,Clouds,dailyrainin,SolarRadiationWatts/m^2,SoftwareType,DateUTC
2013-09-01 00:01:00,76.9,72.7,29.84,SE,130,0.0,3.0,87,0.00,,OVC200,0.00,0.00,VWS V14.01,2013-09-01 04:01:00,
2013-09-01 00:02:00,76.8,72.6,29.84,SE,130,0.0,0.0,87,0.00,,OVC200,0.00,0.00,VWS V14.01,2013-09-01 04:02:00,
2013-09-01 00:03:00,76.7,72.5,29.84,SE,134,0.0,0.0,87,0.00,,OVC200,0.00,0.00,VWS V14.01,2013-09-01 04:03:00,
2013-09-01 00:08:00,76.6,72.4,29.84,SSE,147,0.0,3.0,87,0.00,,OVC200,0.00,0.00,VWS V14.01,2013-09-01 04:08:00,
2013-09-01 00:13:00,76.6,72.4,29.84,SSE,159,0.0,3.0,87,0.00,,OVC200,0.00,0.00,VWS V14.01,2013-09-01 04:13:00,
2013-09-01 00:18:00,76.6,72.4,29.85,ENE,78,1.0,3.0,87,0.00,,OVC200,0.00,0.00,VWS V14.01,2013-09-01 04:18:00,
2013-09-01 00:23:00,76.5,72.3,29.85,SSW,203,0.0,1.0,87,0.00,,OVC200,0.00,0.00,VWS V14.01,2013-09-01 04:23:00,
2013-09-01 00:28:00,76.4,72.2,29.85,WNW,297,0.0,3.0,87,0.00,,OVC200,0.00,0.00,VWS V14.01,2013-09-01 04:28:00,
2013-09-01 00:33:00,76.4,72.2,29.84,SSE,166,0.0,4.0,87,0.00,,OVC200,0.00,0.00,VWS V14.01,2013-09-01 04:33:00,
2013-09-01 00:38:00,76.3,72.2,29.84,SSW,205,1.0,4.0,87,0.00,,OVC200,0.00,0.00,VWS V14.01,2013-09-01 04:38:00,
2013-09-01 00:43:00,76.2,72.1,29.84,SE,136,3.0,3.0,87,0.00,,OVC200,0.00,0.00,VWS V14.01,2013-09-01 04:43:00,
2013-09-01 00:48:00,76.2,72.1,29.84,South,184,0.0,6.0,87,0.00,,OVC200,0.00,0.00,VWS V14.01,2013-09-01 04:48:00,
2013-09-01 00:53:00,76.0,71.9,29.84,SE,128,0.0,1.0,87,0.00,,OVC200,0.00,0.00,VWS V14.01,2013-09-01 04:53:00,
2013-09-01 00:58:00,75.9,71.8,29.84,WSW,257,0.0,2.0,87,0.00,,BKN250,0.00,0.00,VWS V14.01,2013-09-01 04:58:00,
2013-09-01 01:03:00,75.8,71.7,29.84,SE,138,0.0,2.0,87,0.00,,BKN250,0.00,0.00,VWS V14.01,2013-09-01 05:03:00,
2013-09-01 01:08:00,75.8,71.7,29.84,South,189,1.0,2.0,87,0.00,,BKN250,0.00,0.00,VWS V14.01,2013-09-01 05:08:00,
2013-09-01 01:13:00,75.7,71.9,29.84,South,181,0.0,0.0,88,0.00,,BKN250,0.00,0.00,VWS V14.01,2013-09-01 05:13:00,
2013-09-01 01:18:00,75.5,71.7,29.84,South,172,0.0,3.0,88,0.00,,BKN250,0.00,0.00,VWS V14.01,2013-09-01 05:18:00,
2013-09-01 01:23:00,75.3,71.5,29.84,SE,124,0.0,0.0,88,0.00,,BKN250,0.00,0.00,VWS V14.01,2013-09-01 05:23:00,
2013-09-01 01:28:00,75.1,71.6,29.83,SE,124,0.0,0.0,89,0.00,,BKN250,0.00,0.00,VWS V14.01,2013-09-01 05:28:00,
2013-09-01 01:33:00,74.9,71.4,29.83,SSE,159,0.0,1.0,89,0.00,,BKN250,0.00,0.00,VWS V14.01,2013-09-01 05:33:00,
2013-09-01 01:38:00,74.8,71.3,29.83,ESE,119,0.0,2.0,89,0.00,,BKN250,0.00,0.00,VWS V14.01,2013-09-01 05:38:00,
2013-09-01 01:43:00,74.7,71.2,29.83,ESE,119,0.0,0.0,89,0.00,,BKN250,0.00,0.00,VWS V14.01,2013-09-01 05:43:00,
2013-09-01 01:48:00,74.6,71.5,29.83,ESE,119,0.0,0.0,90,0.00,,BKN250,0.00,0.00,VWS V14.01,2013-09-01 05:48:00,
2013-09-01 01:53:00,74.5,71.4,29.83,ESE,120,0.0,1.0,90,0.00,,BKN250,0.00,0.00,VWS V14.01,2013-09-01 05:53:00,
2013-09-01 01:58:00,74.4,71.6,29.83,ESE,120,0.0,1.0,91,0.00,,BKN250,0.00,0.00,VWS V14.01,2013-09-01 05:58:00,
2013-09-01 02:03:00,74.3,71.5,29.83,ESE,120,0.0,0.0,91,0.00,,BKN250,0.00,0.00,VWS V14.01,2013-09-01 06:03:00,
2013-09-01 02:08:00,74.2,71.4,29.83,SE,126,0.0,1.0,91,0.00,,BKN250,0.00,0.00,VWS V14.01,2013-09-01 06:08:00,
2013-09-01 02:12:00,74.0,71.2,29.83,SSE,159,0.0,0.0,91,0.00,,BKN250,0.00,0.00,VWS V14.01,2013-09-01 06:12:00,
2013-09-01 02:17:00,73.9,71.4,29.82,SSE,157,1.0,1.0,92,0.00,,BKN250,0.00,0.00,VWS V14.01,2013-09-01 06:17:00,
2013-09-01 02:22:00,73.8,71.3,29.83,SSE,157,0.0,0.0,92,0.00,,BKN250,0.00,0.00,VWS V14.01,2013-09-01 06:22:00,
2013-09-01 02:27:00,73.8,71.7,29.83,SSE,157,0.0,1.0,93,0.00,,BKN250,0.00,0.00,VWS V14.01,2013-09-01 06:27:00,
2013-09-01 02:32:00,73.7,71.6,29.82,SSE,157,0.0,1.0,93,0.00,,BKN250,0.00,0.00,VWS V14.01,2013-09-01 06:32:00,
2013-09-01 02:37:00,73.7,71.6,29.82,SSE,157,0.0,2.0,93,0.00,,BKN250,0.00,0.00,VWS V14.01,2013-09-01 06:37:00,
2013-09-01 02:42:00,73.7,71.6,29.82,SSE,153,0.0,1.0,93,0.00,,BKN250,0.00,0.00,VWS V14.01,2013-09-01 06:42:00,
2013-09-01 02:47:00,73.7,71.6,29.82,SSE,153,0.0,1.0,93,0.00,,BKN250,0.00,0.00,VWS V14.01,2013-09-01 06:47:00,
2013-09-01 02:52:00,73.7,71.6,29.82,SSE,152,0.0,1.0,93,0.00,,BKN250,0.00,0.00,VWS V14.01,2013-09-01 06:52:00,
2013-09-01 02:57:00,73.8,71.7,29.82,SSE,152,0.0,1.0,93,0.00,,BKN250,0.00,0.00,VWS V14.01,2013-09-01 06:57:00,
2013-09-01 03:02:00,73.9,71.8,29.82,SSE,151,0.0,0.0,93,0.00,,BKN250,0.00,0.00,VWS V14.01,2013-09-01 07:02:00,
2013-09-01 03:07:00,73.9,71.8,29.82,SE,141,0.0,0.0,93,0.00,,BKN250,0.00,0.00,VWS V14.01,2013-09-01 07:07:00,
2013-09-01 03:12:00,73.9,71.8,29.82,SE,141,0.0,0.0,93,0.00,,BKN250,0.00,0.00,VWS V14.01,2013-09-01 07:12:00,
2013-09-01 03:17:00,74.0,71.8,29.82,SE,141,0.0,0.0,93,0.00,,BKN250,0.00,0.00,VWS V14.01,2013-09-01 07:17:00,
2013-09-01 03:22:00,74.0,71.8,29.82,SE,141,0.0,0.0,93,0.00,,BKN250,0.00,0.00,VWS V14.01,2013-09-01 07:22:00,
2013-09-01 03:27:00,73.9,71.8,29.82,SE,141,0.0,0.0,93,0.00,,BKN250,0.00,0.00,VWS V14.01,2013-09-01 07:27:00,
2013-09-01 03:32:00,73.9,71.8,29.82,SSE,159,0.0,1.0,93,0.00,,BKN250,0.00,0.00,VWS V14.01,2013-09-01 07:32:00,
2013-09-01 03:37:00,73.9,72.1,29.82,SSE,159,0.0,1.0,94,0.00,,BKN250,0.00,0.00,VWS V14.01,2013-09-01 07:37:00,
2013-09-01 03:43:00,73.8,72.0,29.82,SSE,159,0.0,0.0,94,0.00,,BKN250,0.00,0.00,VWS V14.01,2013-09-01 07:43:00,
2013-09-01 03:48:00,73.8,72.0,29.82,SSE,159,0.0,0.0,94,0.00,,BKN250,0.00,0.00,VWS V14.01,2013-09-01 07:48:00,
2013-09-01 03:53:00,73.7,71.9,29.82,SSE,159,0.0,0.0,94,0.00,,BKN250,0.00,0.00,VWS V14.01,2013-09-01 07:53:00,
2013-09-01 03:58:00,73.7,71.9,29.82,SSE,159,0.0,0.0,94,0.00,,OVC200,0.00,0.00,VWS V14.01,2013-09-01 07:58:00,
2013-09-01 04:03:00,73.7,71.9,29.82,SSE,159,0.0,0.0,94,0.00,,OVC200,0.00,0.00,VWS V14.01,2013-09-01 08:03:00,
2013-09-01 04:07:00,73.5,71.7,29.82,SSE,159,0.0,0.0,94,0.00,,OVC200,0.00,0.00,VWS V14.01,2013-09-01 08:07:00,
2013-09-01 04:12:00,73.4,71.6,29.82,SSE,159,0.0,0.0,94,0.00,,OVC200,0.00,0.00,VWS V14.01,2013-09-01 08:12:00,
2013-09-01 04:18:00,73.4,71.9,29.82,SSE,159,0.0,0.0,95,0.00,,OVC200,0.00,0.00,VWS V14.01,2013-09-01 08:18:00,
2013-09-01 04:22:00,73.3,71.8,29.82,SSE,159,0.0,0.0,95,0.00,,OVC200,0.00,0.00,VWS V14.01,2013-09-01 08:22:00,
2013-09-01 04:27:00,73.2,71.7,29.82,SSE,159,0.0,0.0,95,0.00,,OVC200,0.00,0.00,VWS V14.01,2013-09-01 08:27:00,
2013-09-01 04:32:00,73.2,71.7,29.82,SSE,159,0.0,0.0,95,0.00,,OVC200,0.00,0.00,VWS V14.01,2013-09-01 08:32:00,
2013-09-01 04:37:00,73.3,71.8,29.82,SSE,159,0.0,0.0,95,0.00,,OVC200,0.00,0.00,VWS V14.01,2013-09-01 08:37:00,
2013-09-01 04:42:00,73.2,71.7,29.82,South,185,0.0,1.0,95,0.00,,OVC200,0.00,0.00,VWS V14.01,2013-09-01 08:42:00,
2013-09-01 04:47:00,73.2,71.7,29.82,South,185,0.0,1.0,95,0.00,,OVC200,0.00,0.00,VWS V14.01,2013-09-01 08:47:00,
2013-09-01 04:52:00,73.1,71.6,29.82,South,185,0.0,0.0,95,0.00,,OVC200,0.00,0.00,VWS V14.01,2013-09-01 08:52:00,
2013-09-01 04:57:00,73.1,71.6,29.82,South,185,0.0,0.0,95,0.00,,BKN250,0.00,0.00,VWS V14.01,2013-09-01 08:57:00,
2013-09-01 05:02:00,73.0,71.5,29.82,South,185,0.0,0.0,95,0.00,,BKN250,0.00,0.00,VWS V14.01,2013-09-01 09:02:00,
2013-09-01 05:07:00,73.0,71.5,29.82,South,185,0.0,0.0,95,0.00,,BKN250,0.00,0.00,VWS V14.01,2013-09-01 09:07:00,
2013-09-01 05:12:00,72.8,71.3,29.82,South,185,0.0,0.0,95,0.00,,BKN250,0.00,0.00,VWS V14.01,2013-09-01 09:12:00,
2013-09-01 05:17:00,72.8,71.3,29.82,South,185,0.0,0.0,95,0.00,,BKN250,0.00,0.00,VWS V14.01,2013-09-01 09:17:00,
2013-09-01 05:22:00,72.7,71.2,29.82,South,185,0.0,0.0,95,0.00,,BKN250,0.00,0.00,VWS V14.01,2013-09-01 09:22:00,
2013-09-01 05:27:00,72.6,71.4,29.83,South,185,0.0,0.0,96,0.00,,BKN250,0.00,0.00,VWS V14.01,2013-09-01 09:27:00,
2013-09-01 05:32:00,72.6,71.4,29.83,South,180,0.0,1.0,96,0.00,,BKN250,0.00,0.00,VWS V14.01,2013-09-01 09:32:00,
2013-09-01 05:37:00,72.5,71.3,29.83,South,180,0.0,1.0,96,0.00,,BKN250,0.00,0.00,VWS V14.01,2013-09-01 09:37:00,
2013-09-01 05:42:00,72.5,71.3,29.83,South,180,0.0,0.0,96,0.00,,BKN250,0.00,0.00,VWS V14.01,2013-09-01 09:42:00,
2013-09-01 05:47:00,72.5,71.3,29.83,South,180,0.0,0.0,96,0.00,,BKN250,0.00,0.00,VWS V14.01,2013-09-01 09:47:00,
2013-09-01 05:52:00,72.4,71.2,29.83,South,180,0.0,1.0,96,0.00,,BKN250,0.00,0.00,VWS V14.01,2013-09-01 09:52:00,
2013-09-01 05:57:00,72.4,71.2,29.83,ESE,111,0.0,2.0,96,0.00,,BKN250,0.00,0.00,VWS V14.01,2013-09-01 09:57:00,
2013-09-01 06:02:00,72.5,71.3,29.83,ESE,110,0.0,0.0,96,0.00,,BKN250,0.00,0.00,VWS V14.01,2013-09-01 10:02:00,
2013-09-01 06:07:00,72.4,71.2,29.84,ESE,110,0.0,0.0,96,0.00,,BKN250,0.00,0.00,VWS V14.01,2013-09-01 10:07:00,
2013-09-01 06:12:00,72.3,71.1,29.84,ESE,110,0.0,0.0,96,0.00,,BKN250,0.00,0.00,VWS V14.01,2013-09-01 10:12:00,
2013-09-01 06:17:00,72.2,71.0,29.84,ESE,110,0.0,0.0,96,0.00,,BKN250,0.00,0.00,VWS V14.01,2013-09-01 10:17:00,
2013-09-01 06:22:00,72.1,70.9,29.84,South,180,0.0,1.0,96,0.00,,BKN250,0.00,0.00,VWS V14.01,2013-09-01 10:22:00,
2013-09-01 06:27:00,72.1,70.9,29.84,South,179,0.0,1.0,96,0.00,,BKN250,0.00,0.00,VWS V14.01,2013-09-01 10:27:00,
2013-09-01 06:32:00,72.1,70.9,29.84,South,179,0.0,0.0,96,0.00,,BKN250,0.00,0.00,VWS V14.01,2013-09-01 10:32:00,
2013-09-01 06:37:00,72.2,71.0,29.84,South,179,0.0,0.0,96,0.00,,BKN250,0.00,0.00,VWS V14.01,2013-09-01 10:37:00,
2013-09-01 06:42:00,72.2,71.0,29.84,South,179,0.0,0.0,96,0.00,,BKN250,0.00,7.00,VWS V14.01,2013-09-01 10:42:00,
2013-09-01 06:47:00,72.4,71.5,29.84,South,179,0.0,0.0,97,0.00,,BKN250,0.00,9.00,VWS V14.01,2013-09-01 10:47:00,
2013-09-01 06:52:00,72.4,71.5,29.85,South,179,0.0,0.0,97,0.00,,BKN250,0.00,12.00,VWS V14.01,2013-09-01 10:52:00,
2013-09-01 06:57:00,72.5,71.6,29.85,South,179,0.0,0.0,97,0.00,,BKN250,0.00,23.00,VWS V14.01,2013-09-01 10:57:00,
2013-09-01 07:02:00,72.6,71.7,29.85,South,179,0.0,1.0,97,0.00,,BKN250,0.00,25.00,VWS V14.01,2013-09-01 11:02:00,
2013-09-01 07:07:00,72.7,71.8,29.85,South,179,0.0,1.0,97,0.00,,BKN250,0.00,26.00,VWS V14.01,2013-09-01 11:07:00,
2013-09-01 07:12:00,72.8,71.9,29.85,South,179,0.0,1.0,97,0.00,,BKN250,0.00,40.00,VWS V14.01,2013-09-01 11:12:00,
2013-09-01 07:17:00,72.9,72.0,29.85,South,179,0.0,1.0,97,0.00,,BKN250,0.00,44.00,VWS V14.01,2013-09-01 11:17:00,
2013-09-01 07:22:00,73.0,72.1,29.85,SSE,167,0.0,2.0,97,0.00,,BKN250,0.00,42.00,VWS V14.01,2013-09-01 11:22:00,
2013-09-01 07:27:00,73.0,72.1,29.85,SSE,167,0.0,2.0,97,0.00,,BKN250,0.00,53.00,VWS V14.01,2013-09-01 11:27:00,
2013-09-01 07:32:00,73.2,72.3,29.85,SSE,166,0.0,0.0,97,0.00,,BKN250,0.00,53.00,VWS V14.01,2013-09-01 11:32:00,
2013-09-01 07:37:00,73.2,72.3,29.85,SE,139,0.0,4.0,97,0.00,,BKN250,0.00,46.00,VWS V14.01,2013-09-01 11:37:00,
2013-09-01 07:42:00,73.3,72.4,29.85,SE,139,0.0,0.0,97,0.00,,BKN250,0.00,53.00,VWS V14.01,2013-09-01 11:42:00,
2013-09-01 07:47:00,73.4,72.5,29.85,SSW,205,1.0,1.0,97,0.00,,BKN250,0.00,54.00,VWS V14.01,2013-09-01 11:47:00,
2013-09-01 07:52:00,73.5,72.3,29.85,SE,145,1.0,2.0,96,0.00,,BKN250,0.00,54.00,VWS V14.01,2013-09-01 11:52:00,
2013-09-01 07:57:00,73.6,72.4,29.85,SE,145,0.0,2.0,96,0.00,,BKN250,0.00,56.00,VWS V14.01,2013-09-01 11:57:00,
2013-09-01 08:02:00,73.7,72.5,29.85,SE,144,0.0,0.0,96,0.00,,BKN250,0.00,70.00,VWS V14.01,2013-09-01 12:02:00,
2013-09-01 08:07:00,73.9,72.7,29.85,SE,144,0.0,3.0,96,0.00,,BKN250,0.00,67.00,VWS V14.01,2013-09-01 12:07:00,
2013-09-01 08:12:00,74.0,72.8,29.85,WSW,238,0.0,1.0,96,0.00,,BKN250,0.00,62.00,VWS V14.01,2013-09-01 12:12:00,
2013-09-01 08:17:00,74.2,73.0,29.85,WSW,238,0.0,1.0,96,0.00,,BKN250,0.00,70.00,VWS V14.01,2013-09-01 12:17:00,
2013-09-01 08:22:00,74.4,73.2,29.85,WSW,258,2.0,2.0,96,0.00,,BKN250,0.00,88.00,VWS V14.01,2013-09-01 12:22:00,
2013-09-01 08:27:00,74.7,73.2,29.86,WSW,256,1.0,2.0,95,0.00,,BKN250,0.00,69.00,VWS V14.01,2013-09-01 12:27:00,
2013-09-01 08:32:00,74.8,73.3,29.86,SE,146,0.0,2.0,95,0.00,,BKN250,0.00,88.00,VWS V14.01,2013-09-01 12:32:00,
2013-09-01 08:37:00,75.0,73.5,29.86,SE,146,0.0,2.0,95,0.00,,BKN250,0.00,104.00,VWS V14.01,2013-09-01 12:37:00,
2013-09-01 08:42:00,75.2,73.4,29.86,SW,234,0.0,3.0,94,0.00,,BKN250,0.00,91.00,VWS V14.01,2013-09-01 12:42:00,
2013-09-01 08:47:00,75.3,73.1,29.86,WSW,256,0.0,3.0,93,0.00,,BKN250,0.00,155.00,VWS V14.01,2013-09-01 12:47:00,
2013-09-01 08:52:00,75.5,73.0,29.87,WSW,256,0.0,1.0,92,0.00,,BKN250,0.00,135.00,VWS V14.01,2013-09-01 12:52:00,
2013-09-01 08:57:00,75.9,73.1,29.86,WSW,256,0.0,1.0,91,0.00,,BKN250,0.00,134.00,VWS V14.01,2013-09-01 12:57:00,
2013-09-01 09:02:00,76.2,73.4,29.86,West,268,0.0,0.0,91,0.00,,BKN250,0.00,132.00,VWS V14.01,2013-09-01 13:02:00,
2013-09-01 09:07:00,76.3,73.2,29.86,West,272,0.0,1.0,90,0.00,,BKN250,0.00,120.00,VWS V14.01,2013-09-01 13:07:00,
2013-09-01 09:12:00,76.6,73.1,29.86,WNW,283,1.0,3.0,89,0.00,,BKN250,0.00,149.00,VWS V14.01,2013-09-01 13:12:00,
2013-09-01 09:17:00,76.8,73.0,29.86,WSW,251,0.0,4.0,88,0.00,,BKN250,0.00,109.00,VWS V14.01,2013-09-01 13:17:00,
2013-09-01 09:22:00,77.2,73.7,29.86,West,281,0.0,0.0,89,0.00,,BKN250,0.00,142.00,VWS V14.01,2013-09-01 13:22:00,
2013-09-01 09:27:00,77.4,73.6,29.86,WNW,302,0.0,0.0,88,0.00,,BKN250,0.00,200.00,VWS V14.01,2013-09-01 13:27:00,
2013-09-01 09:32:00,77.5,73.3,29.86,WNW,286,0.0,1.0,87,0.00,,BKN250,0.00,151.00,VWS V14.01,2013-09-01 13:32:00,
2013-09-01 09:37:00,77.8,74.0,29.86,SE,146,0.0,1.0,88,0.00,,BKN250,0.00,156.00,VWS V14.01,2013-09-01 13:37:00,
2013-09-01 09:42:00,78.0,73.8,29.86,SE,142,0.0,0.0,87,0.00,,BKN250,0.00,156.00,VWS V14.01,2013-09-01 13:42:00,
2013-09-01 09:47:00,78.2,73.7,29.86,SE,136,0.0,0.0,86,0.00,,BKN250,0.00,188.00,VWS V14.01,2013-09-01 13:47:00,
2013-09-01 09:52:00,78.5,74.0,29.86,South,184,0.0,1.0,86,0.00,,BKN250,0.00,207.00,VWS V14.01,2013-09-01 13:52:00,
2013-09-01 09:57:00,78.8,74.3,29.86,SSE,150,0.0,1.0,86,0.00,,BKN250,0.00,176.00,VWS V14.01,2013-09-01 13:57:00,
2013-09-01 10:02:00,78.6,74.1,29.86,SW,232,0.0,0.0,86,0.00,,BKN250,0.00,195.00,VWS V14.01,2013-09-01 14:02:00,
2013-09-01 10:07:00,78.6,74.1,29.85,ESE,107,0.0,3.0,86,0.00,,BKN250,0.00,213.00,VWS V14.01,2013-09-01 14:07:00,
2013-09-01 10:12:00,78.8,73.9,29.86,South,190,3.0,4.0,85,0.00,,BKN250,0.00,209.00,VWS V14.01,2013-09-01 14:12:00,
2013-09-01 10:17:00,78.9,74.4,29.85,NE,47,0.0,4.0,86,0.00,,BKN250,0.00,174.00,VWS V14.01,2013-09-01 14:17:00,
2013-09-01 10:22:00,79.2,74.7,29.86,SSE,148,0.0,0.0,86,0.00,,BKN250,0.00,171.00,VWS V14.01,2013-09-01 14:22:00,
2013-09-01 10:27:00,79.4,74.5,29.86,SE,136,0.0,5.0,85,0.00,,BKN250,0.00,209.00,VWS V14.01,2013-09-01 14:27:00,
2013-09-01 10:32:00,79.7,74.4,29.86,NE,46,0.0,1.0,84,0.00,,BKN250,0.00,216.00,VWS V14.01,2013-09-01 14:32:00,
2013-09-01 10:37:00,80.0,74.7,29.85,NE,42,0.0,2.0,84,0.00,,BKN250,0.00,206.00,VWS V14.01,2013-09-01 14:37:00,
2013-09-01 10:42:00,80.2,74.6,29.85,SSE,155,0.0,4.0,83,0.00,,BKN250,0.00,241.00,VWS V14.01,2013-09-01 14:42:00,
2013-09-01 10:47:00,80.6,75.0,29.85,SSE,156,2.0,4.0,83,0.00,,BKN250,0.00,225.00,VWS V14.01,2013-09-01 14:47:00,
2013-09-01 10:52:00,80.5,74.5,29.85,SE,132,0.0,0.0,82,0.00,,BKN250,0.00,239.00,VWS V14.01,2013-09-01 14:52:00,
2013-09-01 10:57:00,80.6,74.6,29.85,ESE,103,0.0,1.0,82,0.00,,BKN250,0.00,178.00,VWS V14.01,2013-09-01 14:57:00,
2013-09-01 11:02:00,80.9,74.9,29.85,ENE,76,0.0,3.0,82,0.00,,BKN250,0.00,171.00,VWS V14.01,2013-09-01 15:02:00,
2013-09-01 11:07:00,81.0,75.3,29.85,West,263,4.0,4.0,83,0.00,,BKN250,0.00,167.00,VWS V14.01,2013-09-01 15:07:00,
2013-09-01 11:12:00,81.5,74.7,29.85,ENE,65,0.0,0.0,80,0.00,,BKN250,0.00,199.00,VWS V14.01,2013-09-01 15:12:00,
2013-09-01 11:17:00,81.3,74.2,29.85,West,266,0.0,2.0,79,0.00,,BKN250,0.00,186.00,VWS V14.01,2013-09-01 15:17:00,
2013-09-01 11:22:00,81.2,74.4,29.85,WSW,246,3.0,3.0,80,0.00,,BKN250,0.00,186.00,VWS V14.01,2013-09-01 15:22:00,
2013-09-01 11:27:00,81.0,73.1,29.86,ESE,117,1.0,4.0,77,0.00,,BKN250,0.00,308.00,VWS V14.01,2013-09-01 15:27:00,
2013-09-01 11:32:00,81.1,73.2,29.86,East,98,2.0,5.0,77,0.00,,BKN250,0.00,309.00,VWS V14.01,2013-09-01 15:32:00,
2013-09-01 11:37:00,81.7,73.8,29.86,SW,219,3.0,5.0,77,0.00,,BKN250,0.00,311.00,VWS V14.01,2013-09-01 15:37:00,
2013-09-01 11:42:00,82.2,73.9,29.86,SW,236,0.0,4.0,76,0.00,,BKN250,0.00,666.00,VWS V14.01,2013-09-01 15:42:00,
2013-09-01 11:47:00,83.1,75.5,29.86,South,180,0.0,5.0,78,0.00,,BKN250,0.00,740.00,VWS V14.01,2013-09-01 15:47:00,
2013-09-01 11:52:00,83.3,74.6,29.86,WSW,242,3.0,5.0,75,0.00,,BKN250,0.00,563.00,VWS V14.01,2013-09-01 15:52:00,
2013-09-01 11:57:00,83.4,75.1,29.85,South,170,0.0,6.0,76,0.00,,BKN250,0.00,610.00,VWS V14.01,2013-09-01 15:57:00,
2013-09-01 12:02:00,83.8,75.4,29.85,SSW,211,0.0,3.0,76,0.00,,BKN250,0.00,860.00,VWS V14.01,2013-09-01 16:02:00,
2013-09-01 12:07:00,83.7,74.5,29.85,WSW,257,2.0,5.0,74,0.00,,BKN250,0.00,733.00,VWS V14.01,2013-09-01 16:07:00,
2013-09-01 12:12:00,83.9,75.5,29.85,SSW,200,2.0,4.0,76,0.00,,BKN250,0.00,773.00,VWS V14.01,2013-09-01 16:12:00,
2013-09-01 12:17:00,84.6,74.6,29.85,ESE,105,1.0,4.0,72,0.00,,BKN250,0.00,766.00,VWS V14.01,2013-09-01 16:17:00,
2013-09-01 12:22:00,84.5,74.5,29.85,East,84,1.0,3.0,72,0.00,,BKN250,0.00,742.00,VWS V14.01,2013-09-01 16:22:00,
2013-09-01 12:27:00,84.5,74.5,29.85,SSE,153,1.0,4.0,72,0.00,,BKN250,0.00,840.00,VWS V14.01,2013-09-01 16:27:00,
2013-09-01 12:32:00,84.9,74.4,29.85,North,5,0.0,3.0,71,0.00,,BKN250,0.00,784.00,VWS V14.01,2013-09-01 16:32:00,
2013-09-01 12:37:00,84.7,74.3,29.85,SSE,151,2.0,7.0,71,0.00,,BKN250,0.00,715.00,VWS V14.01,2013-09-01 16:37:00,
2013-09-01 12:42:00,84.8,74.4,29.84,ESE,113,1.0,2.0,71,0.00,,BKN250,0.00,800.00,VWS V14.01,2013-09-01 16:42:00,
2013-09-01 12:47:00,84.7,73.8,29.84,SE,132,0.0,2.0,70,0.00,,BKN250,0.00,817.00,VWS V14.01,2013-09-01 16:47:00,
2013-09-01 12:52:00,85.3,74.4,29.84,SSE,157,3.0,4.0,70,0.00,,BKN250,0.00,891.00,VWS V14.01,2013-09-01 16:52:00,
2013-09-01 12:57:00,85.3,74.4,29.84,South,191,2.0,6.0,70,0.00,,BKN250,0.00,868.00,VWS V14.01,2013-09-01 16:57:00,
2013-09-01 13:02:00,85.6,74.3,29.84,South,171,1.0,2.0,69,0.00,,BKN250,0.00,823.00,VWS V14.01,2013-09-01 17:02:00,
2013-09-01 13:07:00,85.8,75.3,29.84,SW,216,0.0,2.0,71,0.00,,BKN250,0.00,858.00,VWS V14.01,2013-09-01 17:07:00,
2013-09-01 13:12:00,86.2,75.7,29.84,SW,228,0.0,4.0,71,0.00,,BKN250,0.00,840.00,VWS V14.01,2013-09-01 17:12:00,
2013-09-01 13:17:00,86.5,74.7,29.83,West,261,0.0,5.0,68,0.00,,BKN250,0.00,856.00,VWS V14.01,2013-09-01 17:17:00,
2013-09-01 13:22:00,87.0,76.0,29.83,SSW,195,0.0,1.0,70,0.00,,BKN250,0.00,881.00,VWS V14.01,2013-09-01 17:22:00,
2013-09-01 13:27:00,86.9,76.4,29.83,WSW,255,0.0,3.0,71,0.00,,BKN250,0.00,881.00,VWS V14.01,2013-09-01 17:27:00,
2013-09-01 13:32:00,87.1,76.1,29.83,SSE,148,2.0,4.0,70,0.00,,BKN250,0.00,872.00,VWS V14.01,2013-09-01 17:32:00,
2013-09-01 13:37:00,86.6,73.9,29.83,ESE,106,0.0,8.0,66,0.00,,BKN250,0.00,854.00,VWS V14.01,2013-09-01 17:37:00,
2013-09-01 13:42:00,86.3,74.9,29.83,South,174,1.0,5.0,69,0.00,,BKN250,0.00,889.00,VWS V14.01,2013-09-01 17:42:00,
2013-09-01 13:47:00,86.1,74.3,29.83,SSE,153,0.0,7.0,68,0.00,,BKN250,0.00,868.00,VWS V14.01,2013-09-01 17:47:00,
2013-09-01 13:52:00,86.3,74.9,29.82,WNW,286,1.0,1.0,69,0.00,,BKN250,0.00,710.00,VWS V14.01,2013-09-01 17:52:00,
2013-09-01 13:57:00,86.5,76.4,29.82,SSE,158,0.0,4.0,72,0.00,,BKN250,0.00,898.00,VWS V14.01,2013-09-01 17:57:00,
2013-09-01 14:02:00,86.9,75.5,29.82,SSE,153,3.0,5.0,69,0.00,,BKN250,0.00,860.00,VWS V14.01,2013-09-01 18:02:00,
2013-09-01 14:07:00,86.8,74.1,29.82,SSE,150,4.0,6.0,66,0.00,,BKN250,0.00,793.00,VWS V14.01,2013-09-01 18:07:00,
2013-09-01 14:12:00,86.3,74.9,29.82,WNW,288,3.0,3.0,69,0.00,,BKN250,0.00,814.00,VWS V14.01,2013-09-01 18:12:00,
2013-09-01 14:17:00,86.6,74.3,29.82,SSW,207,0.0,8.0,67,0.00,,BKN250,0.00,733.00,VWS V14.01,2013-09-01 18:17:00,
2013-09-01 14:22:00,86.9,75.1,29.82,WNW,289,4.0,6.0,68,0.00,,BKN250,0.00,816.00,VWS V14.01,2013-09-01 18:22:00,
2013-09-01 14:27:00,87.1,74.4,29.82,ESE,122,2.0,7.0,66,0.00,,BKN250,0.00,803.00,VWS V14.01,2013-09-01 18:27:00,
2013-09-01 14:32:00,87.1,74.4,29.81,ESE,121,0.0,1.0,66,0.00,,BKN250,0.00,784.00,VWS V14.01,2013-09-01 18:32:00,
2013-09-01 14:37:00,86.8,74.1,29.82,WSW,240,0.0,6.0,66,0.00,,BKN250,0.00,719.00,VWS V14.01,2013-09-01 18:37:00,
2013-09-01 14:42:00,86.8,74.1,29.81,South,173,2.0,5.0,66,0.00,,BKN250,0.00,772.00,VWS V14.01,2013-09-01 18:42:00,
2013-09-01 14:47:00,87.4,75.1,29.81,South,179,2.0,6.0,67,0.00,,BKN250,0.00,728.00,VWS V14.01,2013-09-01 18:47:00,
2013-09-01 14:52:00,87.3,74.1,29.81,SSE,153,2.0,5.0,65,0.00,,BKN250,0.00,680.00,VWS V14.01,2013-09-01 18:52:00,
2013-09-01 14:57:00,87.5,74.8,29.81,ESE,121,2.0,5.0,66,0.00,,BKN250,0.00,765.00,VWS V14.01,2013-09-01 18:57:00,
2013-09-01 15:02:00,87.4,74.7,29.81,East,92,1.0,2.0,66,0.00,,BKN250,0.00,721.00,VWS V14.01,2013-09-01 19:02:00,
2013-09-01 15:07:00,87.6,75.3,29.81,SSW,211,0.0,3.0,67,0.00,,BKN250,0.00,758.00,VWS V14.01,2013-09-01 19:07:00,
2013-09-01 15:12:00,87.9,74.7,29.81,SE,136,2.0,5.0,65,0.00,,BKN250,0.00,675.00,VWS V14.01,2013-09-01 19:12:00,
2013-09-01 15:17:00,87.3,75.0,29.81,NW,319,0.0,5.0,67,0.00,,BKN250,0.00,452.00,VWS V14.01,2013-09-01 19:17:00,
2013-09-01 15:22:00,87.0,74.7,29.81,SE,125,1.0,1.0,67,0.00,,BKN250,0.00,765.00,VWS V14.01,2013-09-01 19:22:00,
2013-09-01 15:27:00,87.3,75.0,29.80,ESE,105,7.0,8.0,67,0.00,,BKN250,0.00,397.00,VWS V14.01,2013-09-01 19:27:00,
2013-09-01 15:32:00,87.7,74.5,29.80,SE,137,3.0,3.0,65,0.00,,BKN250,0.00,693.00,VWS V14.01,2013-09-01 19:32:00,
2013-09-01 15:37:00,87.6,74.4,29.80,SE,131,1.0,5.0,65,0.00,,BKN250,0.00,696.00,VWS V14.01,2013-09-01 19:37:00,
2013-09-01 15:42:00,87.6,75.7,29.80,SSE,151,0.0,1.0,68,0.00,,BKN250,0.00,649.00,VWS V14.01,2013-09-01 19:42:00,
2013-09-01 15:47:00,87.4,73.7,29.80,SSE,167,1.0,2.0,64,0.00,,BKN250,0.00,197.00,VWS V14.01,2013-09-01 19:47:00,
2013-09-01 15:52:00,86.4,74.6,29.80,SW,227,0.0,4.0,68,0.00,,BKN250,0.00,684.00,VWS V14.01,2013-09-01 19:52:00,
2013-09-01 15:57:00,86.8,74.1,29.80,SSE,148,0.0,5.0,66,0.00,,BKN250,0.00,673.00,VWS V14.01,2013-09-01 19:57:00,
2013-09-01 16:02:00,87.0,74.3,29.80,East,92,1.0,2.0,66,0.00,,BKN250,0.00,638.00,VWS V14.01,2013-09-01 20:02:00,
2013-09-01 16:07:00,87.3,75.0,29.80,WSW,240,0.0,5.0,67,0.00,,BKN250,0.00,585.00,VWS V14.01,2013-09-01 20:07:00,
2013-09-01 16:12:00,86.9,74.2,29.80,ESE,121,2.0,5.0,66,0.00,,BKN250,0.00,538.00,VWS V14.01,2013-09-01 20:12:00,
2013-09-01 16:17:00,86.8,75.0,29.80,WNW,284,0.0,7.0,68,0.00,,BKN250,0.00,631.00,VWS V14.01,2013-09-01 20:17:00,
2013-09-01 16:22:00,87.1,75.3,29.80,SW,215,4.0,7.0,68,0.00,,BKN250,0.00,621.00,VWS V14.01,2013-09-01 20:22:00,
2013-09-01 16:27:00,87.6,74.8,29.79,SW,225,1.0,7.0,66,0.00,,BKN250,0.00,573.00,VWS V14.01,2013-09-01 20:27:00,
2013-09-01 16:32:00,87.4,75.1,29.79,South,190,0.0,3.0,67,0.00,,BKN250,0.00,503.00,VWS V14.01,2013-09-01 20:32:00,
2013-09-01 16:37:00,86.8,75.0,29.79,NE,40,0.0,5.0,68,0.00,,BKN250,0.00,183.00,VWS V14.01,2013-09-01 20:37:00,
2013-09-01 16:42:00,86.2,75.3,29.79,SE,146,0.0,3.0,70,0.00,,BKN250,0.00,128.00,VWS V14.01,2013-09-01 20:42:00,
2013-09-01 16:47:00,86.2,75.3,29.79,North,10,0.0,3.0,70,0.00,,BKN250,0.00,452.00,VWS V14.01,2013-09-01 20:47:00,
2013-09-01 16:52:00,86.4,74.2,29.79,SSE,153,1.0,3.0,67,0.00,,BKN250,0.00,135.00,VWS V14.01,2013-09-01 20:52:00,
2013-09-01 16:57:00,86.3,74.5,29.79,SE,126,1.0,3.0,68,0.00,,BKN250,0.00,158.00,VWS V14.01,2013-09-01 20:57:00,
2013-09-01 17:02:00,86.4,74.6,29.79,NW,322,1.0,3.0,68,0.00,,BKN250,0.00,417.00,VWS V14.01,2013-09-01 21:02:00,
2013-09-01 17:07:00,86.2,74.4,29.78,SE,134,0.0,5.0,68,0.00,,BKN250,0.00,200.00,VWS V14.01,2013-09-01 21:07:00,
2013-09-01 17:12:00,85.5,73.7,29.78,SSE,153,0.0,3.0,68,0.00,,BKN250,0.00,181.00,VWS V14.01,2013-09-01 21:12:00,
2013-09-01 17:17:00,85.6,74.3,29.78,WSW,248,0.0,3.0,69,0.00,,BKN250,0.00,374.00,VWS V14.01,2013-09-01 21:17:00,
2013-09-01 17:22:00,86.0,74.2,29.78,ESE,103,0.0,2.0,68,0.00,,BKN250,0.00,98.00,VWS V14.01,2013-09-01 21:22:00,
2013-09-01 17:27:00,86.0,74.7,29.78,SSE,159,0.0,3.0,69,0.00,,BKN250,0.00,325.00,VWS V14.01,2013-09-01 21:27:00,
2013-09-01 17:32:00,86.5,75.1,29.78,South,181,0.0,4.0,69,0.00,,BKN250,0.00,146.00,VWS V14.01,2013-09-01 21:32:00,
2013-09-01 17:37:00,86.1,75.2,29.78,SSE,158,0.0,4.0,70,0.00,,BKN250,0.00,297.00,VWS V14.01,2013-09-01 21:37:00,
2013-09-01 17:42:00,86.2,74.4,29.78,SSE,149,1.0,2.0,68,0.00,,BKN250,0.00,272.00,VWS V14.01,2013-09-01 21:42:00,
2013-09-01 17:47:00,85.9,75.0,29.78,SW,217,0.0,6.0,70,0.00,,BKN250,0.00,172.00,VWS V14.01,2013-09-01 21:47:00,
2013-09-01 17:52:00,85.8,75.3,29.78,West,259,0.0,1.0,71,0.00,,BKN250,0.00,130.00,VWS V14.01,2013-09-01 21:52:00,
2013-09-01 17:57:00,85.4,74.9,29.78,SSE,158,1.0,7.0,71,0.00,,BKN250,0.00,67.00,VWS V14.01,2013-09-01 21:57:00,
2013-09-01 18:02:00,85.1,75.1,29.78,SSE,165,0.0,0.0,72,0.00,,BKN250,0.00,65.00,VWS V14.01,2013-09-01 22:02:00,
2013-09-01 18:07:00,84.8,75.2,29.78,SSW,209,0.0,3.0,73,0.00,,BKN250,0.00,56.00,VWS V14.01,2013-09-01 22:07:00,
2013-09-01 18:12:00,84.5,75.7,29.78,SSE,150,0.0,1.0,75,0.00,,BKN250,0.00,42.00,VWS V14.01,2013-09-01 22:12:00,
2013-09-01 18:17:00,84.1,75.7,29.78,SSE,147,2.0,5.0,76,0.00,,BKN250,0.00,28.00,VWS V14.01,2013-09-01 22:17:00,
2013-09-01 18:22:00,83.6,75.6,29.79,ESE,110,0.0,0.0,77,0.00,,BKN250,0.00,30.00,VWS V14.01,2013-09-01 22:22:00,
2013-09-01 18:27:00,83.2,75.6,29.79,SW,217,0.0,1.0,78,0.00,,BKN250,0.00,23.00,VWS V14.01,2013-09-01 22:27:00,
2013-09-01 18:32:00,83.0,75.4,29.79,SE,142,0.0,0.0,78,0.00,,BKN250,0.00,26.00,VWS V14.01,2013-09-01 22:32:00,
2013-09-01 18:37:00,82.9,75.7,29.79,South,175,0.0,6.0,79,0.00,,BKN250,0.00,33.00,VWS V14.01,2013-09-01 22:37:00,
2013-09-01 18:42:00,82.7,75.5,29.79,SSW,200,0.0,1.0,79,0.00,,BKN250,0.00,30.00,VWS V14.01,2013-09-01 22:42:00,
2013-09-01 18:47:00,82.7,75.5,29.79,SSE,162,0.0,2.0,79,0.00,,BKN250,0.00,21.00,VWS V14.01,2013-09-01 22:47:00,
2013-09-01 18:52:00,82.4,75.6,29.79,ENE,61,0.0,1.0,80,0.00,,BKN250,0.00,14.00,VWS V14.01,2013-09-01 22:52:00,
2013-09-01 18:57:00,82.3,75.5,29.79,SE,142,0.0,1.0,80,0.00,,BKN250,0.00,9.00,VWS V14.01,2013-09-01 22:57:00,
2013-09-01 19:02:00,82.0,75.2,29.79,SE,143,0.0,1.0,80,0.00,,SCT250,0.00,7.00,VWS V14.01,2013-09-01 23:02:00,
2013-09-01 19:07:00,81.8,75.4,29.79,South,173,0.0,2.0,81,0.00,,SCT250,0.00,7.00,VWS V14.01,2013-09-01 23:07:00,
2013-09-01 19:12:00,81.5,75.1,29.79,South,173,0.0,0.0,81,0.00,,SCT250,0.00,7.00,VWS V14.01,2013-09-01 23:12:00,
2013-09-01 19:17:00,81.2,75.2,29.79,North,355,0.0,1.0,82,0.00,,SCT250,0.00,5.00,VWS V14.01,2013-09-01 23:17:00,
2013-09-01 19:22:00,81.1,75.1,29.79,SE,136,0.0,2.0,82,0.00,,SCT250,0.00,5.00,VWS V14.01,2013-09-01 23:22:00,
2013-09-01 19:27:00,80.9,75.3,29.79,SE,143,0.0,2.0,83,0.00,,SCT250,0.00,0.00,VWS V14.01,2013-09-01 23:27:00,
2013-09-01 19:32:00,80.8,75.2,29.79,SSE,160,0.0,0.0,83,0.00,,SCT250,0.00,0.00,VWS V14.01,2013-09-01 23:32:00,
2013-09-01 19:37:00,80.6,75.0,29.80,SE,145,0.0,2.0,83,0.00,,SCT250,0.00,0.00,VWS V14.01,2013-09-01 23:37:00,
2013-09-01 19:42:00,80.5,74.9,29.79,SE,139,0.0,0.0,83,0.00,,SCT250,0.00,0.00,VWS V14.01,2013-09-01 23:42:00,
2013-09-01 19:47:00,80.3,75.0,29.79,SSE,157,0.0,1.0,84,0.00,,SCT250,0.00,0.00,VWS V14.01,2013-09-01 23:47:00,
2013-09-01 19:52:00,80.1,74.8,29.79,SSE,156,0.0,0.0,84,0.00,,SCT250,0.00,0.00,VWS V14.01,2013-09-01 23:52:00,
2013-09-01 19:57:00,79.8,74.5,29.79,SSE,156,0.0,0.0,84,0.00,,SCT250,0.00,0.00,VWS V14.01,2013-09-01 23:57:00,
2013-09-01 20:02:00,79.6,74.7,29.79,SSE,157,0.0,0.0,85,0.00,,BKN250,0.00,0.00,VWS V14.01,2013-09-02 00:02:00,
2013-09-01 20:07:00,79.5,74.6,29.80,SSE,158,0.0,1.0,85,0.00,,BKN250,0.00,0.00,VWS V14.01,2013-09-02 00:07:00,
2013-09-01 20:12:00,79.6,74.7,29.80,SSE,147,0.0,0.0,85,0.00,,BKN250,0.00,0.00,VWS V14.01,2013-09-02 00:12:00,
2013-09-01 20:17:00,79.6,74.7,29.80,SE,145,0.0,1.0,85,0.00,,BKN250,0.00,0.00,VWS V14.01,2013-09-02 00:17:00,
2013-09-01 20:22:00,79.4,74.8,29.80,South,179,0.0,0.0,86,0.00,,BKN250,0.00,0.00,VWS V14.01,2013-09-02 00:22:00,
2013-09-01 20:27:00,79.3,74.8,29.80,SSE,150,0.0,1.0,86,0.00,,BKN250,0.00,0.00,VWS V14.01,2013-09-02 00:27:00,
2013-09-01 20:32:00,79.4,74.8,29.81,SSE,150,0.0,0.0,86,0.00,,BKN250,0.00,0.00,VWS V14.01,2013-09-02 00:32:00,
2013-09-01 20:37:00,79.4,74.8,29.81,SSE,154,0.0,0.0,86,0.00,,BKN250,0.00,0.00,VWS V14.01,2013-09-02 00:37:00,
2013-09-01 20:41:00,79.3,74.8,29.81,SSE,154,0.0,0.0,86,0.00,,BKN250,0.00,0.00,VWS V14.01,2013-09-02 00:41:00,
2013-09-01 20:46:00,79.2,74.7,29.82,SSE,154,0.0,0.0,86,0.00,,BKN250,0.00,0.00,VWS V14.01,2013-09-02 00:46:00,
2013-09-01 20:51:00,79.1,74.6,29.82,SSE,154,0.0,0.0,86,0.00,,BKN250,0.00,0.00,VWS V14.01,2013-09-02 00:51:00,
2013-09-01 20:56:00,78.9,74.7,29.82,SSE,154,0.0,0.0,87,0.00,,BKN250,0.00,0.00,VWS V14.01,2013-09-02 00:56:00,
2013-09-01 21:01:00,78.9,74.7,29.82,SSE,154,0.0,0.0,87,0.00,,BKN250,0.00,0.00,VWS V14.01,2013-09-02 01:01:00,
2013-09-01 21:06:00,78.7,74.5,29.82,SSE,154,0.0,0.0,87,0.00,,BKN250,0.00,0.00,VWS V14.01,2013-09-02 01:06:00,
2013-09-01 21:11:00,78.5,74.7,29.82,SSE,154,0.0,0.0,88,0.00,,BKN250,0.00,0.00,VWS V14.01,2013-09-02 01:11:00,
2013-09-01 21:16:00,78.4,74.6,29.82,SSE,153,0.0,0.0,88,0.00,,BKN250,0.00,0.00,VWS V14.01,2013-09-02 01:16:00,
2013-09-01 21:21:00,78.3,74.8,29.82,SSE,153,0.0,0.0,89,0.00,,BKN250,0.00,0.00,VWS V14.01,2013-09-02 01:21:00,
2013-09-01 21:26:00,78.4,74.9,29.82,SE,130,0.0,2.0,89,0.00,,BKN250,0.00,0.00,VWS V14.01,2013-09-02 01:26:00,
2013-09-01 21:31:00,78.5,75.0,29.82,SE,134,1.0,1.0,89,0.00,,BKN250,0.00,0.00,VWS V14.01,2013-09-02 01:31:00,
2013-09-01 21:36:00,78.5,75.0,29.82,SE,134,0.0,1.0,89,0.00,,BKN250,0.00,0.00,VWS V14.01,2013-09-02 01:36:00,
2013-09-01 21:41:00,78.4,74.9,29.82,SE,134,0.0,0.0,89,0.00,,BKN250,0.00,0.00,VWS V14.01,2013-09-02 01:41:00,
2013-09-01 21:46:00,78.3,74.8,29.82,SE,134,0.0,0.0,89,0.00,,BKN250,0.00,0.00,VWS V14.01,2013-09-02 01:46:00,
2013-09-01 21:51:00,78.1,74.6,29.82,SE,134,0.0,0.0,89,0.00,,BKN250,0.00,0.00,VWS V14.01,2013-09-02 01:51:00,
2013-09-01 21:56:00,77.9,74.7,29.82,SE,140,0.0,1.0,90,0.00,,BKN250,0.00,0.00,VWS V14.01,2013-09-02 01:56:00,
2013-09-01 22:01:00,77.9,74.7,29.82,SSE,153,0.0,2.0,90,0.00,,BKN250,0.00,0.00,VWS V14.01,2013-09-02 02:01:00,
2013-09-01 22:06:00,78.0,74.8,29.82,SSE,167,0.0,1.0,90,0.00,,BKN250,0.00,0.00,VWS V14.01,2013-09-02 02:06:00,
2013-09-01 22:11:00,78.0,74.8,29.82,SSE,167,0.0,0.0,90,0.00,,BKN250,0.00,0.00,VWS V14.01,2013-09-02 02:11:00,
2013-09-01 22:16:00,77.9,74.7,29.82,SSE,167,0.0,0.0,90,0.00,,BKN250,0.00,0.00,VWS V14.01,2013-09-02 02:16:00,
2013-09-01 22:21:00,77.9,74.7,29.81,SSE,167,0.0,0.0,90,0.00,,BKN250,0.00,0.00,VWS V14.01,2013-09-02 02:21:00,
2013-09-01 22:26:00,77.9,74.7,29.82,SSE,163,0.0,2.0,90,0.00,,BKN250,0.00,0.00,VWS V14.01,2013-09-02 02:26:00,
2013-09-01 22:31:00,77.8,75.0,29.82,SSE,163,0.0,0.0,91,0.00,,BKN250,0.00,0.00,VWS V14.01,2013-09-02 02:31:00,
2013-09-01 22:36:00,77.7,74.9,29.82,SSE,163,0.0,1.0,91,0.00,,BKN250,0.00,0.00,VWS V14.01,2013-09-02 02:36:00,
2013-09-01 22:41:00,77.6,74.8,29.82,SSE,164,0.0,1.0,91,0.00,,BKN250,0.00,0.00,VWS V14.01,2013-09-02 02:41:00,
2013-09-01 22:46:00,77.6,74.8,29.82,SSE,164,0.0,1.0,91,0.00,,BKN250,0.00,0.00,VWS V14.01,2013-09-02 02:46:00,
2013-09-01 22:51:00,77.6,74.8,29.82,SSE,164,0.0,0.0,91,0.00,,BKN250,0.00,0.00,VWS V14.01,2013-09-02 02:51:00,
2013-09-01 22:56:00,77.5,74.7,29.82,SSE,164,0.0,0.0,91,0.00,,BKN250,0.00,0.00,VWS V14.01,2013-09-02 02:56:00,
2013-09-01 23:01:00,77.3,74.8,29.82,SSE,164,0.0,0.0,92,0.00,,OVC230,0.00,0.00,VWS V14.01,2013-09-02 03:01:00,
2013-09-01 23:06:00,77.3,74.8,29.82,SSE,164,0.0,0.0,92,0.00,,OVC230,0.00,0.00,VWS V14.01,2013-09-02 03:06:00,
2013-09-01 23:11:00,77.2,74.7,29.81,SSE,164,0.0,0.0,92,0.00,,OVC230,0.00,0.00,VWS V14.01,2013-09-02 03:11:00,
2013-09-01 23:16:00,77.1,74.6,29.81,SSE,164,0.0,0.0,92,0.00,,OVC230,0.00,0.00,VWS V14.01,2013-09-02 03:16:00,
2013-09-01 23:21:00,77.0,74.5,29.81,SSE,163,0.0,1.0,92,0.00,,OVC230,0.00,0.00,VWS V14.01,2013-09-02 03:21:00,
2013-09-01 23:26:00,77.0,74.8,29.81,SSE,162,0.0,1.0,93,0.00,,OVC230,0.00,0.00,VWS V14.01,2013-09-02 03:26:00,
2013-09-01 23:31:00,77.0,74.5,29.81,SSE,162,0.0,0.0,92,0.00,,OVC230,0.00,0.00,VWS V14.01,2013-09-02 03:31:00,
2013-09-01 23:36:00,76.9,74.7,29.81,SSE,147,1.0,2.0,93,0.00,,OVC230,0.00,0.00,VWS V14.01,2013-09-02 03:36:00,
2013-09-01 23:41:00,76.9,74.7,29.81,SSE,147,0.0,1.0,93,0.00,,OVC230,0.00,0.00,VWS V14.01,2013-09-02 03:41:00,
2013-09-01 23:46:00,76.9,74.7,29.81,SSE,161,0.0,1.0,93,0.00,,OVC230,0.00,0.00,VWS V14.01,2013-09-02 03:46:00,
2013-09-01 23:51:00,76.9,74.7,29.81,SSE,162,0.0,0.0,93,0.00,,OVC230,0.00,0.00,VWS V14.01,2013-09-02 03:51:00,
2013-09-01 23:56:00,76.7,74.5,29.80,SSE,162,1.0,1.0,93,0.00,,OVC230,0.00,0.00,VWS V14.01,2013-09-02 03:56:00,